Time,TemperatureF,DewpointF,PressureIn,WindDirection,WindDirectionDegrees,WindSpeedMPH,WindSpeedGustMPH,Humidity,HourlyPrecipIn,Conditions,Clouds,dailyrainin,SoftwareType,DateUTC
2013-03-02 00:00:00,34.2,9.4,29.74,NNE,21,0.0,0.0,35,0.00,,---,0.00,VWS V14.01,2013-03-02 05:00:00,
2013-03-02 00:01:00,34.0,9.2,29.74,NNE,21,0.0,0.0,35,0.00,,---,0.00,VWS V14.01,2013-03-02 05:01:00,
2013-03-02 00:06:00,34.0,9.2,29.74,NNE,21,0.0,0.0,35,0.00,,---,0.00,VWS V14.01,2013-03-02 05:06:00,
2013-03-02 00:11:00,34.0,9.2,29.74,NNE,21,0.0,0.0,35,0.00,,---,0.00,VWS V14.01,2013-03-02 05:11:00,
2013-03-02 00:16:00,34.2,9.4,29.74,NNE,21,0.0,0.0,35,0.00,,---,0.00,VWS V14.01,2013-03-02 05:16:00,
2013-03-02 00:21:00,34.2,9.4,29.74,NNE,21,0.0,0.0,35,0.00,,---,0.00,VWS V14.01,2013-03-02 05:21:00,
2013-03-02 00:26:00,34.2,9.4,29.74,NNE,21,0.0,0.0,35,0.00,,---,0.00,VWS V14.01,2013-03-02 05:26:00,
2013-03-02 00:31:00,34.2,9.4,29.74,NNE,22,0.0,0.0,35,0.00,,---,0.00,VWS V14.01,2013-03-02 05:31:00,
2013-03-02 00:36:00,34.2,9.4,29.74,West,267,2.7,5.8,35,0.00,,---,0.00,VWS V14.01,2013-03-02 05:36:00,
2013-03-02 00:41:00,34.2,10.0,29.74,West,267,2.7,4.9,36,0.00,,---,0.00,VWS V14.01,2013-03-02 05:41:00,
2013-03-02 00:46:00,34.2,10.0,29.74,West,267,3.1,4.0,36,0.00,,---,0.00,VWS V14.01,2013-03-02 05:46:00,
2013-03-02 00:51:00,34.2,10.0,29.74,WSW,238,5.4,8.3,36,0.00,,---,0.00,VWS V14.01,2013-03-02 05:51:00,
2013-03-02 00:56:00,34.2,10.0,29.74,WNW,296,3.6,5.8,36,0.00,,---,0.00,VWS V14.01,2013-03-02 05:56:00,
2013-03-02 01:02:00,34.0,9.9,29.74,WNW,287,4.9,8.3,36,0.00,,---,0.00,VWS V14.01,2013-03-02 06:02:00,
2013-03-02 01:07:00,34.0,9.2,29.74,NW,304,5.4,5.4,35,0.00,,---,0.00,VWS V14.01,2013-03-02 06:07:00,
2013-03-02 01:12:00,34.0,9.2,29.74,NW,313,6.9,12.1,35,0.00,,---,0.00,VWS V14.01,2013-03-02 06:12:00,
2013-03-02 01:17:00,34.0,8.6,29.74,West,279,0.0,9.6,34,0.00,,---,0.00,VWS V14.01,2013-03-02 06:17:00,
2013-03-02 01:22:00,34.0,8.6,29.74,NNE,25,0.0,8.3,34,0.00,,---,0.00,VWS V14.01,2013-03-02 06:22:00,
2013-03-02 01:27:00,34.0,8.6,29.74,NW,320,0.0,2.7,34,0.00,,---,0.00,VWS V14.01,2013-03-02 06:27:00,
2013-03-02 01:32:00,34.0,8.6,29.74,North,351,3.1,3.6,34,0.00,,---,0.00,VWS V14.01,2013-03-02 06:32:00,
2013-03-02 01:37:00,33.8,8.4,29.74,North,356,4.9,5.4,34,0.00,,---,0.00,VWS V14.01,2013-03-02 06:37:00,
2013-03-02 01:42:00,33.8,9.1,29.74,North,11,0.0,6.7,35,0.00,,---,0.00,VWS V14.01,2013-03-02 06:42:00,
2013-03-02 01:47:00,33.6,8.9,29.74,North,2,0.0,4.0,35,0.00,,---,0.00,VWS V14.01,2013-03-02 06:47:00,
2013-03-02 01:52:00,33.6,8.9,29.74,NNW,342,0.0,5.4,35,0.00,,---,0.00,VWS V14.01,2013-03-02 06:52:00,
2013-03-02 01:57:00,33.4,8.7,29.74,NE,43,4.5,7.8,35,0.00,,---,0.00,VWS V14.01,2013-03-02 06:57:00,
2013-03-02 02:02:00,33.3,8.6,29.74,NE,54,4.9,7.8,35,0.00,,---,0.00,VWS V14.01,2013-03-02 07:02:00,
2013-03-02 02:07:00,33.3,7.9,29.74,NNE,21,4.0,7.4,34,0.00,,---,0.00,VWS V14.01,2013-03-02 07:07:00,
2013-03-02 02:12:00,33.1,7.8,29.74,NNE,13,3.1,7.4,34,0.00,,---,0.00,VWS V14.01,2013-03-02 07:12:00,
2013-03-02 02:17:00,33.3,8.6,29.74,North,351,0.0,6.9,35,0.00,,---,0.00,VWS V14.01,2013-03-02 07:17:00,
2013-03-02 02:22:00,33.3,8.6,29.74,NNE,18,0.0,6.7,35,0.00,,---,0.00,VWS V14.01,2013-03-02 07:22:00,
2013-03-02 02:27:00,33.1,8.4,29.74,NE,45,0.0,6.9,35,0.00,,---,0.00,VWS V14.01,2013-03-02 07:27:00,
2013-03-02 02:32:00,33.1,8.4,29.74,NNE,22,0.0,7.8,35,0.00,,---,0.00,VWS V14.01,2013-03-02 07:32:00,
2013-03-02 02:37:00,33.1,8.4,29.74,NNE,19,0.0,6.9,35,0.00,,---,0.00,VWS V14.01,2013-03-02 07:37:00,
2013-03-02 02:42:00,33.1,8.4,29.74,NE,41,0.0,4.5,35,0.00,,---,0.00,VWS V14.01,2013-03-02 07:42:00,
2013-03-02 02:47:00,32.9,8.3,29.74,NE,52,2.7,6.9,35,0.00,,---,0.00,VWS V14.01,2013-03-02 07:47:00,
2013-03-02 02:52:00,32.9,8.3,29.74,NNW,347,4.9,7.4,35,0.00,,---,0.00,VWS V14.01,2013-03-02 07:52:00,
2013-03-02 02:57:00,32.9,8.3,29.74,North,8,0.0,10.5,35,0.00,,---,0.00,VWS V14.01,2013-03-02 07:57:00,
2013-03-02 03:02:00,32.9,8.3,29.74,NNE,29,6.3,7.4,35,0.00,,---,0.00,VWS V14.01,2013-03-02 08:02:00,
2013-03-02 03:07:00,32.9,8.3,29.74,North,356,0.0,6.9,35,0.00,,---,0.00,VWS V14.01,2013-03-02 08:07:00,
2013-03-02 03:12:00,32.7,8.1,29.74,NNE,15,0.0,9.6,35,0.00,,---,0.00,VWS V14.01,2013-03-02 08:12:00,
2013-03-02 03:17:00,32.7,8.1,29.74,NNE,15,0.0,3.6,35,0.00,,---,0.00,VWS V14.01,2013-03-02 08:17:00,
2013-03-02 03:22:00,32.9,8.9,29.74,NNE,12,0.0,6.3,36,0.00,,---,0.00,VWS V14.01,2013-03-02 08:22:00,
2013-03-02 03:27:00,32.9,8.9,29.74,WNW,284,0.0,3.6,36,0.00,,---,0.00,VWS V14.01,2013-03-02 08:27:00,
2013-03-02 03:32:00,32.9,8.9,29.74,NW,319,0.0,3.6,36,0.00,,---,0.00,VWS V14.01,2013-03-02 08:32:00,
2013-03-02 03:37:00,32.9,8.9,29.74,NW,319,0.0,3.1,36,0.00,,---,0.00,VWS V14.01,2013-03-02 08:37:00,
2013-03-02 03:42:00,32.9,8.9,29.74,NW,318,2.7,2.7,36,0.00,,---,0.00,VWS V14.01,2013-03-02 08:42:00,
2013-03-02 03:47:00,32.9,8.9,29.74,NW,318,0.0,0.0,36,0.00,,---,0.00,VWS V14.01,2013-03-02 08:47:00,
2013-03-02 03:52:00,32.9,8.9,29.74,NW,313,0.0,4.0,36,0.00,,---,0.00,VWS V14.01,2013-03-02 08:52:00,
2013-03-02 03:57:00,32.9,8.9,29.74,WNW,303,0.0,3.6,36,0.00,,---,0.00,VWS V14.01,2013-03-02 08:57:00,
2013-03-02 04:02:00,32.9,8.9,29.74,West,277,0.0,4.5,36,0.00,,---,0.00,VWS V14.01,2013-03-02 09:02:00,
2013-03-02 04:07:00,32.9,9.5,29.74,West,277,0.0,0.0,37,0.00,,---,0.00,VWS V14.01,2013-03-02 09:07:00,
2013-03-02 04:12:00,32.9,9.5,29.74,West,277,0.0,0.0,37,0.00,,---,0.00,VWS V14.01,2013-03-02 09:12:00,
2013-03-02 04:17:00,32.9,9.5,29.74,West,277,0.0,2.7,37,0.00,,---,0.00,VWS V14.01,2013-03-02 09:17:00,
2013-03-02 04:22:00,32.7,9.3,29.74,NW,314,0.0,5.8,37,0.00,,---,0.00,VWS V14.01,2013-03-02 09:22:00,
2013-03-02 04:27:00,32.9,9.5,29.74,NW,310,2.7,4.0,37,0.00,,---,0.00,VWS V14.01,2013-03-02 09:27:00,
2013-03-02 04:32:00,32.9,9.5,29.74,NW,311,0.0,2.7,37,0.00,,---,0.00,VWS V14.01,2013-03-02 09:32:00,
2013-03-02 04:37:00,32.9,9.5,29.74,NW,310,0.0,0.0,37,0.00,,---,0.00,VWS V14.01,2013-03-02 09:37:00,
2013-03-02 04:42:00,32.7,9.3,29.74,NW,310,0.0,2.7,37,0.00,,---,0.00,VWS V14.01,2013-03-02 09:42:00,
2013-03-02 04:47:00,32.7,9.3,29.74,NW,310,0.0,2.7,37,0.00,,---,0.00,VWS V14.01,2013-03-02 09:47:00,
2013-03-02 04:52:00,32.7,9.3,29.74,NW,311,0.0,3.1,37,0.00,,---,0.00,VWS V14.01,2013-03-02 09:52:00,
2013-03-02 04:57:00,32.7,9.3,29.74,West,274,2.7,4.5,37,0.00,,---,0.00,VWS V14.01,2013-03-02 09:57:00,
2013-03-02 05:02:00,32.7,8.7,29.74,NW,305,3.1,7.4,36,0.00,,---,0.00,VWS V14.01,2013-03-02 10:02:00,
2013-03-02 05:07:00,32.7,8.7,29.74,WSW,252,0.0,6.3,36,0.00,,---,0.00,VWS V14.01,2013-03-02 10:07:00,
2013-03-02 05:12:00,32.7,8.7,29.74,WNW,295,5.4,11.6,36,0.00,,---,0.00,VWS V14.01,2013-03-02 10:12:00,
2013-03-02 05:18:00,32.7,8.7,29.74,WNW,295,2.7,10.5,36,0.00,,---,0.00,VWS V14.01,2013-03-02 10:18:00,
2013-03-02 05:23:00,32.5,8.6,29.74,WNW,286,4.9,7.8,36,0.00,,---,0.00,VWS V14.01,2013-03-02 10:23:00,
2013-03-02 05:28:00,32.5,8.6,29.74,NW,312,0.0,4.9,36,0.00,,---,0.00,VWS V14.01,2013-03-02 10:28:00,
2013-03-02 05:33:00,32.5,8.6,29.74,NW,322,0.0,9.2,36,0.00,,---,0.00,VWS V14.01,2013-03-02 10:33:00,
2013-03-02 05:38:00,32.2,8.2,29.74,North,9,0.0,8.3,36,0.00,,---,0.00,VWS V14.01,2013-03-02 10:38:00,
2013-03-02 05:43:00,32.2,8.2,29.74,West,276,0.0,7.4,36,0.00,,---,0.00,VWS V14.01,2013-03-02 10:43:00,
2013-03-02 05:48:00,32.0,8.1,29.74,NNE,32,0.0,6.7,36,0.00,,---,0.00,VWS V14.01,2013-03-02 10:48:00,
2013-03-02 05:53:00,31.8,7.9,29.74,West,281,0.0,5.8,36,0.00,,---,0.00,VWS V14.01,2013-03-02 10:53:00,
2013-03-02 05:58:00,31.6,8.4,29.74,WNW,282,0.0,5.8,37,0.00,,---,0.00,VWS V14.01,2013-03-02 10:58:00,
2013-03-02 06:03:00,31.6,8.4,29.74,WNW,298,0.0,6.3,37,0.00,,---,0.00,VWS V14.01,2013-03-02 11:03:00,
2013-03-02 06:08:00,31.5,8.2,29.74,NNE,25,0.0,5.8,37,0.00,,---,0.00,VWS V14.01,2013-03-02 11:08:00,
2013-03-02 06:13:00,31.5,8.2,29.74,West,265,4.9,6.3,37,0.00,,---,0.00,VWS V14.01,2013-03-02 11:13:00,
2013-03-02 06:18:00,31.5,8.8,29.74,WNW,289,3.1,4.5,38,0.00,,---,0.00,VWS V14.01,2013-03-02 11:18:00,
2013-03-02 06:23:00,31.5,8.8,29.74,West,275,0.0,6.7,38,0.00,,---,0.00,VWS V14.01,2013-03-02 11:23:00,
2013-03-02 06:28:00,31.3,8.6,29.74,West,274,2.7,4.0,38,0.00,,---,0.00,VWS V14.01,2013-03-02 11:28:00,
2013-03-02 06:33:00,31.3,8.6,29.74,NNE,32,3.6,5.8,38,0.00,,---,0.00,VWS V14.01,2013-03-02 11:33:00,
2013-03-02 06:38:00,31.3,8.6,29.74,NNW,332,3.1,10.1,38,0.00,,---,0.00,VWS V14.01,2013-03-02 11:38:00,
2013-03-02 06:43:00,31.3,8.6,29.74,WNW,288,0.0,6.9,38,0.00,,---,0.00,VWS V14.01,2013-03-02 11:43:00,
2013-03-02 06:48:00,31.3,8.6,29.74,WNW,289,0.0,4.5,38,0.00,,---,0.00,VWS V14.01,2013-03-02 11:48:00,
2013-03-02 06:53:00,31.3,8.6,29.74,WNW,288,0.0,6.9,38,0.00,,---,0.00,VWS V14.01,2013-03-02 11:53:00,
2013-03-02 06:58:00,31.5,8.8,29.74,WNW,294,2.7,3.6,38,0.00,,---,0.00,VWS V14.01,2013-03-02 11:58:00,
2013-03-02 07:03:00,31.5,8.8,29.74,NW,307,0.0,4.5,38,0.00,,---,0.00,VWS V14.01,2013-03-02 12:03:00,
2013-03-02 07:08:00,31.6,9.0,29.74,West,274,3.6,6.7,38,0.00,,---,0.00,VWS V14.01,2013-03-02 12:08:00,
2013-03-02 07:13:00,31.6,9.0,29.74,North,9,3.6,6.9,38,0.00,,---,0.00,VWS V14.01,2013-03-02 12:13:00,
2013-03-02 07:18:00,31.6,8.4,29.74,NNW,333,2.7,9.2,37,0.00,,---,0.00,VWS V14.01,2013-03-02 12:18:00,
2013-03-02 07:23:00,32.0,8.7,29.74,North,356,0.0,4.0,37,0.00,,---,0.00,VWS V14.01,2013-03-02 12:23:00,
2013-03-02 07:28:00,32.0,8.7,29.74,North,356,0.0,3.6,37,0.00,,---,0.00,VWS V14.01,2013-03-02 12:28:00,
2013-03-02 07:33:00,32.2,8.9,29.74,WNW,303,0.0,4.5,37,0.00,,---,0.00,VWS V14.01,2013-03-02 12:33:00,
2013-03-02 07:38:00,32.5,9.2,29.74,North,6,0.0,6.3,37,0.00,,---,0.00,VWS V14.01,2013-03-02 12:38:00,
2013-03-02 07:43:00,32.7,9.3,29.74,WNW,294,0.0,9.6,37,0.00,,---,0.00,VWS V14.01,2013-03-02 12:43:00,
2013-03-02 07:48:00,32.7,8.7,29.74,North,351,0.0,0.0,36,0.00,,---,0.00,VWS V14.01,2013-03-02 12:48:00,
2013-03-02 07:53:00,33.1,9.1,29.74,WNW,294,0.0,2.7,36,0.00,,---,0.00,VWS V14.01,2013-03-02 12:53:00,
2013-03-02 07:59:00,33.3,9.2,29.74,WNW,290,6.3,6.7,36,0.00,,---,0.00,VWS V14.01,2013-03-02 12:59:00,
2013-03-02 08:04:00,33.3,8.6,29.74,NNW,335,0.0,0.0,35,0.00,,---,0.00,VWS V14.01,2013-03-02 13:04:00,
2013-03-02 08:09:00,33.3,8.6,29.74,NNW,335,0.0,0.0,35,0.00,,---,0.00,VWS V14.01,2013-03-02 13:09:00,
2013-03-02 08:14:00,33.1,7.8,29.74,NNW,341,0.0,2.7,34,0.00,,---,0.00,VWS V14.01,2013-03-02 13:14:00,
2013-03-02 08:19:00,33.3,7.9,29.74,NW,308,4.0,5.4,34,0.00,,---,0.00,VWS V14.01,2013-03-02 13:19:00,
2013-03-02 08:24:00,33.6,8.3,29.74,North,356,0.0,3.6,34,0.00,,---,0.00,VWS V14.01,2013-03-02 13:24:00,
2013-03-02 08:29:00,33.6,7.6,29.74,WNW,303,0.0,0.0,33,0.00,,---,0.00,VWS V14.01,2013-03-02 13:29:00,
2013-03-02 08:34:00,34.0,7.9,29.74,West,271,4.9,6.9,33,0.00,,---,0.00,VWS V14.01,2013-03-02 13:34:00,
2013-03-02 08:39:00,34.5,9.1,29.74,WNW,294,0.0,5.8,34,0.00,,---,0.00,VWS V14.01,2013-03-02 13:39:00,
2013-03-02 08:44:00,34.5,8.4,29.74,NNE,16,2.7,2.7,33,0.00,,---,0.00,VWS V14.01,2013-03-02 13:44:00,
2013-03-02 08:49:00,34.7,7.9,29.74,NW,321,0.0,4.5,32,0.00,,---,0.00,VWS V14.01,2013-03-02 13:49:00,
2013-03-02 08:54:00,34.7,7.2,29.74,NNE,33,0.0,6.7,31,0.00,,---,0.00,VWS V14.01,2013-03-02 13:54:00,
2013-03-02 08:59:00,34.3,6.9,29.74,NNE,20,4.0,7.8,31,0.00,,---,0.00,VWS V14.01,2013-03-02 13:59:00,
2013-03-02 09:04:00,34.3,6.9,29.74,NE,40,4.0,4.5,31,0.00,,---,0.00,VWS V14.01,2013-03-02 14:04:00,
2013-03-02 09:09:00,34.0,6.5,29.74,NNE,18,7.8,7.8,31,0.00,,---,0.00,VWS V14.01,2013-03-02 14:09:00,
2013-03-02 09:14:00,34.3,6.9,29.74,NW,313,0.0,4.0,31,0.00,,---,0.00,VWS V14.01,2013-03-02 14:14:00,
2013-03-02 09:19:00,34.9,7.3,29.74,NW,307,5.4,7.4,31,0.00,,---,0.00,VWS V14.01,2013-03-02 14:19:00,
2013-03-02 09:24:00,35.1,7.5,29.74,North,356,3.6,3.6,31,0.00,,---,0.00,VWS V14.01,2013-03-02 14:24:00,
2013-03-02 09:29:00,35.4,7.8,29.74,WNW,283,7.8,7.8,31,0.00,,---,0.00,VWS V14.01,2013-03-02 14:29:00,
2013-03-02 09:34:00,35.8,8.1,29.74,NW,309,0.0,3.6,31,0.00,,---,0.00,VWS V14.01,2013-03-02 14:34:00,
2013-03-02 09:39:00,35.8,8.1,29.74,WNW,297,4.5,7.8,31,0.00,,---,0.00,VWS V14.01,2013-03-02 14:39:00,
2013-03-02 09:44:00,35.6,7.2,29.74,West,281,11.2,12.1,30,0.00,,---,0.00,VWS V14.01,2013-03-02 14:44:00,
2013-03-02 09:49:00,35.6,7.2,29.74,NW,323,9.6,9.6,30,0.00,,---,0.00,VWS V14.01,2013-03-02 14:49:00,
2013-03-02 09:54:00,35.4,7.1,29.71,North,2,4.0,6.3,30,0.00,,---,0.00,VWS V14.01,2013-03-02 14:54:00,
2013-03-02 09:59:00,35.6,7.2,29.71,WNW,295,5.4,10.1,30,0.00,,---,0.00,VWS V14.01,2013-03-02 14:59:00,
2013-03-02 10:04:00,35.6,7.2,29.71,North,1,0.0,6.3,30,0.00,,---,0.00,VWS V14.01,2013-03-02 15:04:00,
2013-03-02 10:09:00,35.4,7.1,29.71,North,2,4.9,7.8,30,0.00,,---,0.00,VWS V14.01,2013-03-02 15:09:00,
2013-03-02 10:14:00,35.8,7.4,29.71,NW,318,0.0,4.0,30,0.00,,---,0.00,VWS V14.01,2013-03-02 15:14:00,
2013-03-02 10:19:00,36.3,7.9,29.71,WNW,295,4.9,6.9,30,0.00,,---,0.00,VWS V14.01,2013-03-02 15:19:00,
2013-03-02 10:24:00,36.7,8.2,29.74,NNW,338,6.9,11.6,30,0.00,,---,0.00,VWS V14.01,2013-03-02 15:24:00,
2013-03-02 10:29:00,36.7,8.2,29.74,WNW,293,3.6,4.0,30,0.00,,---,0.00,VWS V14.01,2013-03-02 15:29:00,
2013-03-02 10:34:00,36.7,8.2,29.74,WNW,298,4.0,8.7,30,0.00,,---,0.00,VWS V14.01,2013-03-02 15:34:00,
2013-03-02 10:39:00,36.5,8.0,29.71,NE,35,5.8,5.8,30,0.00,,---,0.00,VWS V14.01,2013-03-02 15:39:00,
2013-03-02 10:44:00,36.1,7.7,29.71,NNE,27,3.6,3.6,30,0.00,,---,0.00,VWS V14.01,2013-03-02 15:44:00,
2013-03-02 10:49:00,36.0,7.6,29.71,NW,322,4.9,6.3,30,0.00,,---,0.00,VWS V14.01,2013-03-02 15:49:00,
2013-03-02 10:54:00,36.9,7.6,29.71,WNW,299,0.0,4.0,29,0.00,,---,0.00,VWS V14.01,2013-03-02 15:54:00,
2013-03-02 10:59:00,36.9,7.6,29.71,WSW,240,4.5,7.4,29,0.00,,---,0.00,VWS V14.01,2013-03-02 15:59:00,
2013-03-02 11:04:00,37.8,8.4,29.71,WNW,289,7.4,7.4,29,0.00,,---,0.00,VWS V14.01,2013-03-02 16:04:00,
2013-03-02 11:09:00,37.4,8.1,29.71,NNE,33,8.3,8.3,29,0.00,,---,0.00,VWS V14.01,2013-03-02 16:09:00,
2013-03-02 11:14:00,37.2,7.9,29.71,North,356,0.0,6.3,29,0.00,,---,0.00,VWS V14.01,2013-03-02 16:14:00,
2013-03-02 11:19:00,38.1,8.7,29.71,NNW,341,4.5,5.4,29,0.00,,---,0.00,VWS V14.01,2013-03-02 16:19:00,
2013-03-02 11:24:00,38.7,8.4,29.71,North,356,5.8,5.8,28,0.00,,---,0.00,VWS V14.01,2013-03-02 16:24:00,
2013-03-02 11:29:00,39.0,8.7,29.71,NNW,328,6.3,10.5,28,0.00,,---,0.00,VWS V14.01,2013-03-02 16:29:00,
2013-03-02 11:34:00,38.7,6.7,29.71,North,356,0.0,4.0,26,0.00,,---,0.00,VWS V14.01,2013-03-02 16:34:00,
2013-03-02 11:39:00,39.6,9.2,29.71,WNW,294,8.3,10.5,28,0.00,,---,0.00,VWS V14.01,2013-03-02 16:39:00,
2013-03-02 11:44:00,39.6,7.5,29.71,NE,38,7.8,11.2,26,0.00,,---,0.00,VWS V14.01,2013-03-02 16:44:00,
2013-03-02 11:49:00,39.4,7.4,29.71,SW,230,5.4,11.2,26,0.00,,---,0.00,VWS V14.01,2013-03-02 16:49:00,
2013-03-02 11:54:00,39.7,7.7,29.71,NNE,17,6.7,8.3,26,0.00,,---,0.00,VWS V14.01,2013-03-02 16:54:00,
2013-03-02 11:59:00,39.9,7.8,29.71,NE,53,6.7,6.7,26,0.00,,---,0.00,VWS V14.01,2013-03-02 16:59:00,
2013-03-02 12:04:00,39.6,4.8,29.71,North,356,4.9,6.9,23,0.00,,---,0.00,VWS V14.01,2013-03-02 17:04:00,
2013-03-02 12:09:00,39.9,7.8,29.71,West,281,8.7,9.2,26,0.00,,---,0.00,VWS V14.01,2013-03-02 17:09:00,
2013-03-02 12:14:00,40.3,8.1,29.71,NNE,22,11.0,11.0,26,0.00,,---,0.00,VWS V14.01,2013-03-02 17:14:00,
2013-03-02 12:19:00,40.3,5.4,29.71,NNE,30,10.1,10.5,23,0.00,,---,0.00,VWS V14.01,2013-03-02 17:19:00,
2013-03-02 12:25:00,39.2,4.5,29.71,West,262,6.3,9.2,23,0.00,,---,0.00,VWS V14.01,2013-03-02 17:25:00,
2013-03-02 12:30:00,39.2,4.5,29.71,NNE,26,2.7,7.4,23,0.00,,---,0.00,VWS V14.01,2013-03-02 17:30:00,
2013-03-02 12:35:00,39.7,5.0,29.71,West,273,3.1,6.9,23,0.00,,---,0.00,VWS V14.01,2013-03-02 17:35:00,
2013-03-02 12:40:00,40.1,5.3,29.68,WNW,287,7.4,7.8,23,0.00,,---,0.00,VWS V14.01,2013-03-02 17:40:00,
2013-03-02 12:45:00,40.1,5.3,29.68,North,11,6.3,8.3,23,0.00,,---,0.00,VWS V14.01,2013-03-02 17:45:00,
2013-03-02 12:50:00,39.4,4.7,29.68,North,10,2.7,4.5,23,0.00,,---,0.00,VWS V14.01,2013-03-02 17:50:00,
2013-03-02 12:55:00,39.2,4.5,29.68,NNE,22,4.9,7.4,23,0.00,,---,0.00,VWS V14.01,2013-03-02 17:55:00,
2013-03-02 13:00:00,38.5,3.9,29.68,WNW,301,3.1,13.4,23,0.00,,---,0.00,VWS V14.01,2013-03-02 18:00:00,
2013-03-02 13:05:00,38.3,3.8,29.68,NNE,19,3.6,8.3,23,0.00,,---,0.00,VWS V14.01,2013-03-02 18:05:00,
2013-03-02 13:10:00,38.5,3.9,29.68,North,4,9.2,9.6,23,0.00,,---,0.00,VWS V14.01,2013-03-02 18:10:00,
2013-03-02 13:15:00,38.3,3.8,29.68,NNE,12,6.7,10.5,23,0.00,,---,0.00,VWS V14.01,2013-03-02 18:15:00,
2013-03-02 13:20:00,38.3,4.7,29.68,NNE,16,4.5,5.8,24,0.00,,---,0.00,VWS V14.01,2013-03-02 18:20:00,
2013-03-02 13:25:00,37.9,4.4,29.68,NNE,18,6.3,11.6,24,0.00,,---,0.00,VWS V14.01,2013-03-02 18:25:00,
2013-03-02 13:30:00,37.9,4.4,29.68,North,356,2.7,8.3,24,0.00,,---,0.00,VWS V14.01,2013-03-02 18:30:00,
2013-03-02 13:35:00,38.5,3.9,29.68,North,356,4.9,10.1,23,0.00,,---,0.00,VWS V14.01,2013-03-02 18:35:00,
2013-03-02 13:40:00,38.7,4.1,29.68,West,280,6.3,8.7,23,0.00,,---,0.00,VWS V14.01,2013-03-02 18:40:00,
2013-03-02 13:45:00,39.0,4.4,29.68,North,8,4.0,7.8,23,0.00,,---,0.00,VWS V14.01,2013-03-02 18:45:00,
2013-03-02 13:50:00,39.2,4.5,29.68,NW,309,4.5,4.9,23,0.00,,---,0.00,VWS V14.01,2013-03-02 18:50:00,
2013-03-02 13:55:00,38.3,3.8,29.68,North,351,3.6,9.2,23,0.00,,---,0.00,VWS V14.01,2013-03-02 18:55:00,
2013-03-02 14:00:00,37.9,4.4,29.68,NNE,18,5.8,8.3,24,0.00,,---,0.00,VWS V14.01,2013-03-02 19:00:00,
2013-03-02 14:05:00,37.8,4.2,29.68,NNE,23,8.3,11.0,24,0.00,,---,0.00,VWS V14.01,2013-03-02 19:05:00,
2013-03-02 14:10:00,37.8,4.2,29.68,NNE,28,3.6,12.1,24,0.00,,---,0.00,VWS V14.01,2013-03-02 19:10:00,
2013-03-02 14:15:00,37.6,4.1,29.68,NNE,17,6.7,9.6,24,0.00,,---,0.00,VWS V14.01,2013-03-02 19:15:00,
2013-03-02 14:20:00,37.6,4.1,29.68,NE,47,7.4,8.7,24,0.00,,---,0.00,VWS V14.01,2013-03-02 19:20:00,
2013-03-02 14:25:00,37.6,4.1,29.68,NNE,15,4.5,6.3,24,0.00,,---,0.00,VWS V14.01,2013-03-02 19:25:00,
2013-03-02 14:30:00,37.9,4.4,29.68,NNE,32,5.4,11.0,24,0.00,,---,0.00,VWS V14.01,2013-03-02 19:30:00,
2013-03-02 14:35:00,37.9,4.4,29.68,NNE,23,5.8,10.1,24,0.00,,---,0.00,VWS V14.01,2013-03-02 19:35:00,
2013-03-02 14:40:00,37.9,4.4,29.68,North,356,0.0,4.5,24,0.00,,---,0.00,VWS V14.01,2013-03-02 19:40:00,
2013-03-02 14:45:00,37.9,4.4,29.68,NNW,327,4.5,10.5,24,0.00,,---,0.00,VWS V14.01,2013-03-02 19:45:00,
2013-03-02 14:50:00,37.6,4.1,29.68,NNE,26,3.1,6.3,24,0.00,,---,0.00,VWS V14.01,2013-03-02 19:50:00,
2013-03-02 14:55:00,37.6,4.1,29.68,NNW,336,4.9,7.4,24,0.00,,---,0.00,VWS V14.01,2013-03-02 19:55:00,
2013-03-02 15:00:00,37.6,4.1,29.68,NNE,17,5.8,8.7,24,0.00,,---,0.00,VWS V14.01,2013-03-02 20:00:00,
2013-03-02 15:05:00,37.0,3.6,29.68,NNE,26,6.9,11.0,24,0.00,,---,0.00,VWS V14.01,2013-03-02 20:05:00,
2013-03-02 15:10:00,37.0,3.6,29.68,NNE,26,4.5,8.3,24,0.00,,---,0.00,VWS V14.01,2013-03-02 20:10:00,
2013-03-02 15:15:00,37.0,5.3,29.68,NNE,14,2.7,6.9,26,0.00,,---,0.00,VWS V14.01,2013-03-02 20:15:00,
2013-03-02 15:20:00,36.9,3.5,29.68,NE,39,7.8,11.0,24,0.00,,---,0.00,VWS V14.01,2013-03-02 20:20:00,
2013-03-02 15:25:00,36.9,3.5,29.68,North,4,7.8,11.0,24,0.00,,---,0.00,VWS V14.01,2013-03-02 20:25:00,
2013-03-02 15:30:00,36.9,5.2,29.68,NNE,26,8.7,8.7,26,0.00,,---,0.00,VWS V14.01,2013-03-02 20:30:00,
2013-03-02 15:35:00,37.2,5.5,29.68,NW,310,0.0,6.3,26,0.00,,---,0.00,VWS V14.01,2013-03-02 20:35:00,
2013-03-02 15:40:00,37.0,5.3,29.68,NNE,18,4.5,7.4,26,0.00,,---,0.00,VWS V14.01,2013-03-02 20:40:00,
2013-03-02 15:45:00,37.0,5.3,29.68,NE,37,9.2,9.2,26,0.00,,---,0.00,VWS V14.01,2013-03-02 20:45:00,
2013-03-02 15:50:00,36.7,5.0,29.68,West,273,3.1,7.8,26,0.00,,---,0.00,VWS V14.01,2013-03-02 20:50:00,
2013-03-02 15:55:00,36.7,5.0,29.68,NNE,20,7.8,11.0,26,0.00,,---,0.00,VWS V14.01,2013-03-02 20:55:00,
2013-03-02 16:00:00,36.1,5.4,29.68,NW,307,5.8,9.2,27,0.00,,---,0.00,VWS V14.01,2013-03-02 21:00:00,
2013-03-02 16:05:00,36.3,5.6,29.68,North,3,0.0,6.3,27,0.00,,---,0.00,VWS V14.01,2013-03-02 21:05:00,
2013-03-02 16:10:00,36.5,5.7,29.68,NNW,337,3.6,4.0,27,0.00,,---,0.00,VWS V14.01,2013-03-02 21:10:00,
2013-03-02 16:15:00,36.3,5.6,29.68,NNW,339,2.7,7.4,27,0.00,,---,0.00,VWS V14.01,2013-03-02 21:15:00,
2013-03-02 16:20:00,36.3,5.6,29.68,NNW,333,3.6,6.3,27,0.00,,---,0.00,VWS V14.01,2013-03-02 21:20:00,
2013-03-02 16:25:00,36.1,5.4,29.68,WNW,301,4.0,7.4,27,0.00,,---,0.00,VWS V14.01,2013-03-02 21:25:00,
2013-03-02 16:30:00,36.1,5.4,29.68,NW,308,0.0,4.0,27,0.00,,---,0.00,VWS V14.01,2013-03-02 21:30:00,
2013-03-02 16:35:00,36.0,5.2,29.68,NNE,14,6.7,7.8,27,0.00,,---,0.00,VWS V14.01,2013-03-02 21:35:00,
2013-03-02 16:40:00,36.0,5.2,29.68,NNE,12,2.7,9.6,27,0.00,,---,0.00,VWS V14.01,2013-03-02 21:40:00,
2013-03-02 16:45:00,36.0,5.2,29.68,North,8,11.2,11.2,27,0.00,,---,0.00,VWS V14.01,2013-03-02 21:45:00,
2013-03-02 16:50:00,35.4,4.8,29.68,NNW,332,4.0,8.3,27,0.00,,---,0.00,VWS V14.01,2013-03-02 21:50:00,
2013-03-02 16:55:00,35.4,4.8,29.68,NNE,22,4.0,10.5,27,0.00,,---,0.00,VWS V14.01,2013-03-02 21:55:00,
2013-03-02 17:00:00,35.4,6.3,29.68,NNE,19,4.0,4.5,29,0.00,,---,0.00,VWS V14.01,2013-03-02 22:00:00,
2013-03-02 17:05:00,35.2,6.2,29.68,NE,54,6.3,9.6,29,0.00,,---,0.00,VWS V14.01,2013-03-02 22:05:00,
2013-03-02 17:10:00,35.2,6.2,29.68,NE,38,6.7,7.8,29,0.00,,---,0.00,VWS V14.01,2013-03-02 22:10:00,
2013-03-02 17:15:00,35.1,6.0,29.68,NNW,334,3.6,9.2,29,0.00,,---,0.00,VWS V14.01,2013-03-02 22:15:00,
2013-03-02 17:20:00,35.1,6.0,29.68,North,8,4.0,6.7,29,0.00,,---,0.00,VWS V14.01,2013-03-02 22:20:00,
2013-03-02 17:25:00,35.1,6.0,29.68,NNE,12,0.0,5.4,29,0.00,,---,0.00,VWS V14.01,2013-03-02 22:25:00,
2013-03-02 17:31:00,35.1,6.0,29.68,NNE,21,0.0,6.3,29,0.00,,---,0.00,VWS V14.01,2013-03-02 22:31:00,
2013-03-02 17:36:00,35.1,6.0,29.68,NNE,18,0.0,7.8,29,0.00,,---,0.00,VWS V14.01,2013-03-02 22:36:00,
2013-03-02 17:41:00,34.9,5.9,29.68,NNE,23,0.0,7.4,29,0.00,,---,0.00,VWS V14.01,2013-03-02 22:41:00,
2013-03-02 17:46:00,34.9,5.9,29.68,NNW,339,3.1,6.7,29,0.00,,---,0.00,VWS V14.01,2013-03-02 22:46:00,
2013-03-02 17:51:00,34.9,6.6,29.68,NE,43,0.0,8.7,30,0.00,,---,0.00,VWS V14.01,2013-03-02 22:51:00,
2013-03-02 17:56:00,34.7,6.4,29.68,NNE,15,4.9,8.7,30,0.00,,---,0.00,VWS V14.01,2013-03-02 22:56:00,
2013-03-02 18:01:00,34.5,6.3,29.68,NNE,16,0.0,4.9,30,0.00,,---,0.00,VWS V14.01,2013-03-02 23:01:00,
2013-03-02 18:06:00,34.5,6.3,29.68,North,9,4.9,8.3,30,0.00,,---,0.00,VWS V14.01,2013-03-02 23:06:00,
2013-03-02 18:11:00,34.5,6.3,29.68,NNE,14,6.9,7.8,30,0.00,,---,0.00,VWS V14.01,2013-03-02 23:11:00,
2013-03-02 18:16:00,34.5,6.3,29.68,WNW,297,3.6,9.6,30,0.00,,---,0.00,VWS V14.01,2013-03-02 23:16:00,
2013-03-02 18:21:00,34.5,6.3,29.71,NNE,33,4.9,6.3,30,0.00,,---,0.00,VWS V14.01,2013-03-02 23:21:00,
2013-03-02 18:26:00,34.3,6.1,29.71,NNE,21,0.0,6.7,30,0.00,,---,0.00,VWS V14.01,2013-03-02 23:26:00,
2013-03-02 18:31:00,34.3,6.1,29.71,North,5,3.1,4.0,30,0.00,,---,0.00,VWS V14.01,2013-03-02 23:31:00,
2013-03-02 18:36:00,34.3,6.1,29.71,West,272,0.0,7.8,30,0.00,,---,0.00,VWS V14.01,2013-03-02 23:36:00,
2013-03-02 18:41:00,34.2,6.0,29.71,North,9,4.0,11.6,30,0.00,,---,0.00,VWS V14.01,2013-03-02 23:41:00,
2013-03-02 18:46:00,34.2,6.0,29.71,NNW,342,6.7,8.3,30,0.00,,---,0.00,VWS V14.01,2013-03-02 23:46:00,
2013-03-02 18:51:00,34.0,5.8,29.71,North,7,4.0,6.9,30,0.00,,---,0.00,VWS V14.01,2013-03-02 23:51:00,
2013-03-02 18:56:00,34.0,5.8,29.71,NE,41,5.4,6.3,30,0.00,,---,0.00,VWS V14.01,2013-03-02 23:56:00,
2013-03-02 19:01:00,34.0,6.5,29.71,ESE,103,0.0,5.4,31,0.00,,---,0.00,VWS V14.01,2013-03-03 00:01:00,
2013-03-02 19:06:00,34.0,6.5,29.71,NNE,15,3.1,5.8,31,0.00,,---,0.00,VWS V14.01,2013-03-03 00:06:00,
2013-03-02 19:11:00,34.0,6.5,29.71,ENE,69,4.0,7.4,31,0.00,,---,0.00,VWS V14.01,2013-03-03 00:11:00,
2013-03-02 19:16:00,33.8,6.4,29.71,North,1,6.7,9.6,31,0.00,,---,0.00,VWS V14.01,2013-03-03 00:16:00,
2013-03-02 19:21:00,33.6,6.2,29.71,North,356,3.1,9.6,31,0.00,,---,0.00,VWS V14.01,2013-03-03 00:21:00,
2013-03-02 19:26:00,33.4,6.1,29.71,North,356,0.0,6.9,31,0.00,,---,0.00,VWS V14.01,2013-03-03 00:26:00,
2013-03-02 19:31:00,33.4,6.1,29.71,NE,39,4.0,6.7,31,0.00,,---,0.00,VWS V14.01,2013-03-03 00:31:00,
2013-03-02 19:36:00,33.4,6.1,29.71,NNW,333,2.7,3.6,31,0.00,,---,0.00,VWS V14.01,2013-03-03 00:36:00,
2013-03-02 19:41:00,33.3,5.9,29.71,NE,56,4.0,7.8,31,0.00,,---,0.00,VWS V14.01,2013-03-03 00:41:00,
2013-03-02 19:46:00,33.1,5.8,29.71,NNE,20,3.6,10.1,31,0.00,,---,0.00,VWS V14.01,2013-03-03 00:46:00,
2013-03-02 19:51:00,33.1,5.8,29.71,North,351,6.3,8.7,31,0.00,,---,0.00,VWS V14.01,2013-03-03 00:51:00,
2013-03-02 19:56:00,33.1,5.8,29.71,NNE,18,4.9,13.9,31,0.00,,---,0.00,VWS V14.01,2013-03-03 00:56:00,
2013-03-02 20:01:00,32.9,6.3,29.71,NNW,328,8.7,9.6,32,0.00,,---,0.00,VWS V14.01,2013-03-03 01:01:00,
2013-03-02 20:06:00,32.7,6.1,29.71,North,351,0.0,10.5,32,0.00,,---,0.00,VWS V14.01,2013-03-03 01:06:00,
2013-03-02 20:11:00,32.5,6.0,29.71,North,6,4.0,5.4,32,0.00,,---,0.00,VWS V14.01,2013-03-03 01:11:00,
2013-03-02 20:16:00,32.5,6.0,29.71,NNE,23,8.7,8.7,32,0.00,,---,0.00,VWS V14.01,2013-03-03 01:16:00,
2013-03-02 20:21:00,32.4,5.8,29.71,NNE,18,0.0,5.8,32,0.00,,---,0.00,VWS V14.01,2013-03-03 01:21:00,
2013-03-02 20:26:00,32.4,5.8,29.71,NNE,23,3.1,6.9,32,0.00,,---,0.00,VWS V14.01,2013-03-03 01:26:00,
2013-03-02 20:31:00,32.4,6.5,29.71,NNE,15,6.3,8.7,33,0.00,,---,0.00,VWS V14.01,2013-03-03 01:31:00,
2013-03-02 20:36:00,32.2,6.3,29.71,NNE,15,0.0,9.2,33,0.00,,---,0.00,VWS V14.01,2013-03-03 01:36:00,
2013-03-02 20:41:00,32.2,6.3,29.71,WNW,295,4.9,5.8,33,0.00,,---,0.00,VWS V14.01,2013-03-03 01:41:00,
2013-03-02 20:46:00,32.2,6.3,29.71,NNE,24,5.8,6.9,33,0.00,,---,0.00,VWS V14.01,2013-03-03 01:46:00,
2013-03-02 20:51:00,32.0,6.2,29.71,North,3,2.7,7.8,33,0.00,,---,0.00,VWS V14.01,2013-03-03 01:51:00,
2013-03-02 20:56:00,31.8,6.7,29.71,NNE,23,0.0,7.4,34,0.00,,---,0.00,VWS V14.01,2013-03-03 01:56:00,
2013-03-02 21:01:00,31.6,6.5,29.71,NW,321,0.0,7.8,34,0.00,,---,0.00,VWS V14.01,2013-03-03 02:01:00,
2013-03-02 21:06:00,31.6,7.1,29.71,NNE,24,0.0,6.7,35,0.00,,---,0.00,VWS V14.01,2013-03-03 02:06:00,
2013-03-02 21:11:00,31.5,7.0,29.71,North,10,4.5,6.7,35,0.00,,---,0.00,VWS V14.01,2013-03-03 02:11:00,
2013-03-02 21:16:00,31.5,7.0,29.71,NW,312,0.0,4.0,35,0.00,,---,0.00,VWS V14.01,2013-03-03 02:16:00,
2013-03-02 21:21:00,31.5,7.6,29.71,NW,308,0.0,8.3,36,0.00,,---,0.00,VWS V14.01,2013-03-03 02:21:00,
2013-03-02 21:26:00,31.3,7.4,29.71,North,11,4.0,5.8,36,0.00,,---,0.00,VWS V14.01,2013-03-03 02:26:00,
2013-03-02 21:31:00,30.9,7.7,29.71,NNE,30,8.3,10.5,37,0.00,,---,0.00,VWS V14.01,2013-03-03 02:31:00,
2013-03-02 21:37:00,30.6,8.0,29.71,NNE,15,4.5,5.8,38,0.00,,---,0.00,VWS V14.01,2013-03-03 02:37:00,
2013-03-02 21:42:00,30.4,7.8,29.71,NE,45,4.9,5.4,38,0.00,,---,0.00,VWS V14.01,2013-03-03 02:42:00,
2013-03-02 21:47:00,30.4,8.4,29.71,NW,321,6.9,7.4,39,0.00,,---,0.00,VWS V14.01,2013-03-03 02:47:00,
2013-03-02 21:52:00,30.2,8.8,29.71,North,0,0.0,6.7,40,0.00,,---,0.00,VWS V14.01,2013-03-03 02:52:00,
2013-03-02 21:57:00,30.2,8.8,29.71,North,5,4.0,9.2,40,0.00,,---,0.00,VWS V14.01,2013-03-03 02:57:00,
2013-03-02 22:02:00,29.8,8.5,29.71,NNE,18,2.7,10.1,40,0.00,,---,0.00,VWS V14.01,2013-03-03 03:02:00,
2013-03-02 22:07:00,29.7,8.9,29.71,North,10,0.0,9.2,41,0.00,,---,0.00,VWS V14.01,2013-03-03 03:07:00,
2013-03-02 22:12:00,29.7,8.9,29.71,North,356,0.0,7.8,41,0.00,,---,0.00,VWS V14.01,2013-03-03 03:12:00,
2013-03-02 22:17:00,29.7,8.9,29.71,WNW,293,0.0,7.4,41,0.00,,---,0.00,VWS V14.01,2013-03-03 03:17:00,
2013-03-02 22:22:00,29.7,8.9,29.71,NNE,12,2.7,11.6,41,0.00,,---,0.00,VWS V14.01,2013-03-03 03:22:00,
2013-03-02 22:27:00,29.5,8.7,29.71,NW,312,4.0,7.8,41,0.00,,---,0.00,VWS V14.01,2013-03-03 03:27:00,
2013-03-02 22:32:00,29.7,8.9,29.71,North,7,3.1,4.5,41,0.00,,---,0.00,VWS V14.01,2013-03-03 03:32:00,
2013-03-02 22:37:00,29.5,8.7,29.71,NNE,18,3.1,7.8,41,0.00,,---,0.00,VWS V14.01,2013-03-03 03:37:00,
2013-03-02 22:42:00,29.3,8.5,29.71,NNE,12,12.5,12.5,41,0.00,,---,0.00,VWS V14.01,2013-03-03 03:42:00,
2013-03-02 22:47:00,29.3,9.1,29.71,North,2,2.7,7.8,42,0.00,,---,0.00,VWS V14.01,2013-03-03 03:47:00,
2013-03-02 22:52:00,29.3,9.1,29.71,North,0,0.0,4.9,42,0.00,,---,0.00,VWS V14.01,2013-03-03 03:52:00,
2013-03-02 22:57:00,29.3,9.1,29.71,WNW,298,4.5,5.4,42,0.00,,---,0.00,VWS V14.01,2013-03-03 03:57:00,
2013-03-02 23:02:00,29.3,9.1,29.71,North,356,0.0,4.9,42,0.00,,---,0.00,VWS V14.01,2013-03-03 04:02:00,
2013-03-02 23:07:00,29.1,8.9,29.71,NNW,328,4.5,4.5,42,0.00,,---,0.00,VWS V14.01,2013-03-03 04:07:00,
2013-03-02 23:12:00,28.9,8.7,29.71,NNE,24,0.0,7.4,42,0.00,,---,0.00,VWS V14.01,2013-03-03 04:12:00,
2013-03-02 23:17:00,28.8,8.6,29.71,NNE,23,0.0,13.9,42,0.00,,---,0.00,VWS V14.01,2013-03-03 04:17:00,
2013-03-02 23:22:00,28.8,8.6,29.71,NNW,334,0.0,9.2,42,0.00,,---,0.00,VWS V14.01,2013-03-03 04:22:00,
2013-03-02 23:27:00,28.8,8.6,29.71,NE,48,6.9,10.1,42,0.00,,---,0.00,VWS V14.01,2013-03-03 04:27:00,
2013-03-02 23:32:00,28.4,8.2,29.71,WSW,257,4.9,10.1,42,0.00,,---,0.00,VWS V14.01,2013-03-03 04:32:00,
2013-03-02 23:37:00,28.4,8.2,29.71,NNE,23,0.0,6.7,42,0.00,,---,0.00,VWS V14.01,2013-03-03 04:37:00,
2013-03-02 23:42:00,28.4,8.2,29.71,NNE,23,0.0,2.7,42,0.00,,---,0.00,VWS V14.01,2013-03-03 04:42:00,
2013-03-02 23:47:00,28.4,8.2,29.71,NNE,19,0.0,8.7,42,0.00,,---,0.00,VWS V14.01,2013-03-03 04:47:00,
2013-03-02 23:52:00,28.4,8.2,29.71,NNE,26,3.1,6.3,42,0.00,,---,0.00,VWS V14.01,2013-03-03 04:52:00,
2013-03-02 23:57:00,28.4,8.2,29.71,NNE,25,4.9,8.3,42,0.00,,---,0.00,VWS V14.01,2013-03-03 04:57:00,